TDRS 5

Last updated on Thu Dec 18 2025 00:02:41 GMT+0000 (Coordinated Universal Time)

1 21639U 91054B 25351.23885654 .00000096 00000+0 00000+0 0 9990 2 21639 14.0935 355.1203 0013595 256.6411 112.7063 1.00270044125895
UTC large
Height (km)
Speed (km/s)
/
Latitude / Longitude
Inclination (degrees)
Orbital Period (minutes)
Azimuth
Elevation
Range (km)
Doppler Factor

Next 0 passes for location: London (51.5072 / 0.1276)

Sorry there are no passes over London.